When you browse on this site, cookies collect data to enhance your experience and personalize the content and advertising you see.
Visit our Privacy Policy to learn more. By continuing to use the site, you agree to this use of cookies and data.
  • In United Kingdom
  • List of Countries
  • For 7 days
  • Water Temperature
  • Weather Map
  • Weather Widgets
  • user-avatar
    Login

    Hourly Weather Sopron

    Today, 9 April, Thursday

    Time Temperature Precipitation Wind Pressure Humidity
    00:00 +9°C° 0 mm 3 mps 752 mmHg 47%
    01:00 +9°C° 0 mm 3 mps 751 mmHg 48%
    02:00 +9°C° 0 mm 3 mps 751 mmHg 49%
    03:00 +9°C° 0 mm 3 mps 751 mmHg 49%
    04:00 +8°C° 0 mm 3 mps 750 mmHg 50%
    05:00 +9°C° 0 mm 2 mps 750 mmHg 51%
    06:00 +10°C° 0 mm 2 mps 750 mmHg 52%
    07:00 +11°C° 0 mm 1 mps 751 mmHg 52%
    08:00 +14°C° 0 mm 1 mps 750 mmHg 47%
    09:00 +16°C° 0 mm 1 mps 750 mmHg 41%
    10:00 +19°C° 0 mm 1 mps 750 mmHg 36%
    11:00 +21°C° 0 mm 1 mps 750 mmHg 34%
    12:00 +22°C° 0 mm 1 mps 750 mmHg 32%
    13:00 +23°C° 0 mm 1 mps 749 mmHg 31%
    14:00 +23°C° 0 mm 1 mps 749 mmHg 32%
    15:00 +23°C° 0 mm 2 mps 749 mmHg 32%
    16:00 +23°C° 0 mm 2 mps 748 mmHg 33%
    17:00 +21°C° 0 mm 1 mps 748 mmHg 40%
    18:00 +18°C° 0 mm 1 mps 748 mmHg 46%
    19:00 +14°C° 0 mm 0 mps 748 mmHg 52%
    20:00 +15°C° 0 mm 1 mps 749 mmHg 52%
    21:00 +15°C° 0 mm 1 mps 749 mmHg 52%
    22:00 +15°C° 0 mm 2 mps 750 mmHg 52%
    23:00 +14°C° 0 mm 2 mps 750 mmHg 55%

    Tomorrow, 10 April, Friday

    Time Temperature Precipitation Wind Pressure Humidity
    00:00 +13°C° 0 mm 3 mps 750 mmHg 58%
    01:00 +12°C° 0 mm 3 mps 750 mmHg 60%
    02:00 +11°C° 0 mm 3 mps 750 mmHg 64%
    03:00 +11°C° 0 mm 3 mps 750 mmHg 67%
    04:00 +11°C° 0 mm 3 mps 750 mmHg 71%
    05:00 +11°C° 0 mm 3 mps 750 mmHg 70%
    06:00 +12°C° 0 mm 3 mps 751 mmHg 70%
    07:00 +12°C° 0 mm 4 mps 751 mmHg 70%
    08:00 +14°C° 0 mm 4 mps 751 mmHg 64%
    09:00 +16°C° 0 mm 3 mps 751 mmHg 58%
    10:00 +17°C° 0 mm 3 mps 751 mmHg 52%
    11:00 +18°C° 0 mm 3 mps 751 mmHg 51%
    12:00 +19°C° 0 mm 3 mps 751 mmHg 49%
    13:00 +19°C° 0 mm 3 mps 750 mmHg 47%
    14:00 +19°C° 0 mm 3 mps 750 mmHg 49%
    15:00 +19°C° 0 mm 3 mps 750 mmHg 50%
    16:00 +19°C° 0 mm 3 mps 749 mmHg 51%
    17:00 +17°C° 0 mm 2 mps 749 mmHg 56%
    18:00 +16°C° 0 mm 2 mps 749 mmHg 62%
    19:00 +14°C° 0 mm 1 mps 749 mmHg 67%
    20:00 +13°C° 0 mm 1 mps 750 mmHg 68%
    21:00 +13°C° 0 mm 1 mps 750 mmHg 70%
    22:00 +12°C° 0 mm 1 mps 750 mmHg 71%
    23:00 +12°C° 0 mm 1 mps 750 mmHg 72%

    Day after tomorrow, 11 April, Saturday

    Time Temperature Precipitation Wind Pressure Humidity
    00:00 +12°C° 0 mm 1 mps 750 mmHg 73%
    01:00 +10°C° 0 mm 0 mps 750 mmHg 73%
    02:00 +10°C° 0 mm 0 mps 750 mmHg 74%
    03:00 +10°C° 0 mm 0 mps 750 mmHg 74%
    04:00 +10°C° 0 mm 0 mps 750 mmHg 74%
    05:00 +10°C° 0 mm 0 mps 751 mmHg 73%
    06:00 +12°C° 0 mm 1 mps 751 mmHg 71%
    07:00 +12°C° 0 mm 1 mps 751 mmHg 70%
    08:00 +13°C° 0 mm 1 mps 751 mmHg 65%
    09:00 +14°C° 0 mm 1 mps 751 mmHg 61%
    10:00 +15°C° 0 mm 1 mps 751 mmHg 57%
    11:00 +16°C° 0 mm 1 mps 751 mmHg 54%
    12:00 +18°C° 0 mm 1 mps 751 mmHg 51%
    13:00 +18°C° 0 mm 2 mps 751 mmHg 49%
    14:00 +18°C° 0 mm 2 mps 750 mmHg 50%
    15:00 +19°C° 0 mm 1 mps 750 mmHg 51%
    16:00 +19°C° 0 mm 1 mps 749 mmHg 52%
    17:00 +16°C° 0 mm 1 mps 750 mmHg 57%
    18:00 +15°C° 0 mm 1 mps 750 mmHg 62%
    19:00 +13°C° 0 mm 1 mps 750 mmHg 67%
    20:00 +12°C° 0 mm 1 mps 750 mmHg 68%
    21:00 +12°C° 0 mm 1 mps 750 mmHg 69%
    22:00 +10°C° 0 mm 0 mps 751 mmHg 70%
    23:00 +11°C° 0 mm 1 mps 751 mmHg 71%

    12 April, Sunday

    Time Temperature Precipitation Wind Pressure Humidity
    00:00 +11°C° 0 mm 1 mps 751 mmHg 71%
    01:00 +11°C° 0 mm 1 mps 750 mmHg 71%
    02:00 +11°C° 0 mm 1 mps 750 mmHg 73%
    03:00 +10°C° 0 mm 1 mps 750 mmHg 74%
    04:00 +9°C° 0 mm 2 mps 750 mmHg 75%
    05:00 +10°C° 0 mm 2 mps 750 mmHg 73%
    06:00 +12°C° 0 mm 2 mps 749 mmHg 71%
    07:00 +11°C° 0 mm 3 mps 749 mmHg 69%
    08:00 +13°C° 0 mm 3 mps 749 mmHg 64%
    09:00 +15°C° 0 mm 4 mps 749 mmHg 59%
    10:00 +17°C° 0 mm 5 mps 748 mmHg 54%
    11:00 +19°C° 0 mm 6 mps 748 mmHg 52%
    12:00 +20°C° 0 mm 6 mps 747 mmHg 50%
    13:00 +21°C° 0 mm 6 mps 747 mmHg 48%
    14:00 +21°C° 0 mm 6 mps 746 mmHg 49%
    15:00 +21°C° 0 mm 6 mps 745 mmHg 49%
    16:00 +21°C° 0 mm 6 mps 745 mmHg 50%
    17:00 +19°C° 0 mm 5 mps 744 mmHg 55%
    18:00 +16°C° 0 mm 5 mps 744 mmHg 60%
    19:00 +15°C° 0 mm 5 mps 744 mmHg 66%
    20:00 +14°C° 0 mm 5 mps 744 mmHg 67%
    21:00 +13°C° 0 mm 4 mps 744 mmHg 68%
    22:00 +13°C° 0 mm 4 mps 743 mmHg 69%
    23:00 +12°C° 0 mm 4 mps 743 mmHg 71%

    13 April, Monday

    Time Temperature Precipitation Wind Pressure Humidity
    00:00 +12°C° 0 mm 4 mps 743 mmHg 72%
    01:00 +11°C° 0 mm 3 mps 743 mmHg 74%
    02:00 +11°C° 0 mm 3 mps 743 mmHg 75%
    03:00 +10°C° 0 mm 3 mps 742 mmHg 76%
    04:00 +10°C° 0 mm 2 mps 742 mmHg 77%
    05:00 +12°C° 0 mm 2 mps 742 mmHg 76%
    06:00 +13°C° 0 mm 1 mps 742 mmHg 74%
    07:00 +13°C° 0 mm 1 mps 743 mmHg 72%
    08:00 +15°C° 0 mm 1 mps 742 mmHg 67%
    09:00 +16°C° 0 mm 1 mps 742 mmHg 63%
    10:00 +19°C° 0 mm 1 mps 742 mmHg 58%
    11:00 +19°C° 0.1 mm 2 mps 742 mmHg 55%
    12:00 +20°C° 0.1 mm 2 mps 742 mmHg 51%
    13:00 +21°C° 0.1 mm 2 mps 742 mmHg 47%
    14:00 +20°C° 0.6 mm 3 mps 742 mmHg 53%
    15:00 +19°C° 0.6 mm 3 mps 741 mmHg 59%
    16:00 +18°C° 0.6 mm 3 mps 741 mmHg 66%
    17:00 +17°C° 0.1 mm 3 mps 741 mmHg 68%
    18:00 +16°C° 0.1 mm 3 mps 741 mmHg 69%
    19:00 +15°C° 0.1 mm 2 mps 741 mmHg 71%
    20:00 +14°C° 0 mm 2 mps 742 mmHg 71%
    21:00 +14°C° 0 mm 2 mps 742 mmHg 70%
    22:00 +14°C° 0 mm 2 mps 743 mmHg 70%
    23:00 +12°C° 0.3 mm 3 mps 743 mmHg 74%

    14 April, Tuesday

    Time Temperature Precipitation Wind Pressure Humidity
    00:00 +12°C° 0.3 mm 3 mps 743 mmHg 79%
    01:00 +12°C° 0.3 mm 4 mps 744 mmHg 84%
    02:00 +10°C° 0.1 mm 5 mps 744 mmHg 82%
    03:00 +9°C° 0.1 mm 6 mps 745 mmHg 81%
    04:00 +8°C° 0.1 mm 7 mps 746 mmHg 80%
    05:00 +5°C° 0 mm 7 mps 747 mmHg 77%
    06:00 +4°C° 0 mm 7 mps 748 mmHg 74%
    07:00 +1°C° 0 mm 8 mps 748 mmHg 71%
    08:00 +3°C° 0 mm 7 mps 749 mmHg 63%
    09:00 +4°C° 0 mm 7 mps 750 mmHg 54%
    10:00 +5°C° 0 mm 7 mps 750 mmHg 45%
    11:00 +6°C° 0 mm 7 mps 750 mmHg 42%
    12:00 +8°C° 0 mm 6 mps 751 mmHg 39%
    13:00 +9°C° 0 mm 6 mps 751 mmHg 36%
    14:00 +9°C° 0 mm 6 mps 751 mmHg 37%
    15:00 +9°C° 0 mm 5 mps 751 mmHg 38%
    16:00 +9°C° 0 mm 5 mps 750 mmHg 39%
    17:00 +7°C° 0 mm 4 mps 751 mmHg 44%
    18:00 +7°C° 0 mm 3 mps 751 mmHg 49%
    19:00 +5°C° 0 mm 2 mps 751 mmHg 54%
    20:00 +4°C° 0 mm 2 mps 751 mmHg 55%
    21:00 +5°C° 0 mm 1 mps 751 mmHg 56%
    22:00 +4°C° 0 mm 1 mps 752 mmHg 57%
    23:00 +4°C° 0 mm 1 mps 752 mmHg 57%
    Show more